Location: Binningen
(47.7924°N, 8.7261°E)
Time: 18:16:32
(UTC+00:00)

Cosmos 2084 Rocket - Pass Details

Date: 17 May 2021
Orbit: 521 x 659 km, 62.8° (Epoch: 21 June)

Event Time Altitude Azimuth Distance (km) Brightness Sun altitude
Rises 21:00:18 0° 314° (NW) 2,781 8.6 -15.6°
Reaches altitude 10° 21:02:33 10° 309° (NW) 1,902 7.3 -15.8°
Maximum altitude 21:06:41 47° 235° (SW) 793 4.0 -16.2°
Enters shadow 21:08:43 27° 177° (S) 1,172 4.5 -16.4°
